�N����,����,�~����,�C��,���x,�C��,����,���ϕ���,�ő�u�ԕ���,�ő厞����,���˗�,�I�_���x,�n�����x,�ő啗���N��,DTYPE
"23/12/27","00:10",0.0,4.3,87.3,1021.8,299.5,1.3,2.7,317.5,0.00,2.4,6.5,"00:04:56",1
"23/12/27","00:20",0.0,4.1,87.8,1021.8,327.3,1.8,2.4,330.3,0.00,2.3,6.7,"00:18:00",1
"23/12/27","00:30",0.0,4.2,88.3,1021.8,269.8,1.8,3.1,300.9,0.00,2.5,6.7,"00:21:00",1
"23/12/27","00:40",0.0,4.1,88.7,1021.5,284.2,1.3,1.7,315.1,0.00,2.4,6.6,"00:34:44",1
"23/12/27","00:50",0.0,4.0,88.9,1021.5,268.4,1.1,1.6,253.4,0.00,2.4,6.7,"00:49:16",1
"23/12/27","01:00",0.0,4.1,89.1,1021.1,328.1,1.3,1.8,348.6,0.00,2.5,6.6,"00:58:10",1
"23/12/27","01:10",0.0,4.2,89.1,1021.5,326.4,1.6,2.6,316.1,0.00,2.6,6.7,"01:09:28",1
"23/12/27","01:20",0.0,4.2,89.2,1021.3,281.4,2.3,3.3,252.4,0.00,2.6,6.7,"01:19:16",1
"23/12/27","01:30",0.0,4.5,88.8,1021.5,324.6,1.8,3.1,259.7,0.00,2.9,6.6,"01:20:08",1
"23/12/27","01:40",0.0,4.4,88.4,1022.0,327.3,1.8,2.4,341.5,0.00,2.7,6.7,"01:35:10",1
"23/12/27","01:50",0.0,4.3,88.1,1021.8,319.5,2.0,2.7,335.9,0.00,2.5,6.3,"01:43:36",1
"23/12/27","02:00",0.0,4.2,88.1,1021.8,273.9,1.3,1.9,248.2,0.00,2.4,6.6,"01:57:58",1
"23/12/27","02:10",0.0,4.3,88.0,1022.3,304.7,2.1,2.6,321.2,0.00,2.5,6.3,"02:07:40",1
"23/12/27","02:20",0.0,4.4,88.0,1022.0,296.8,1.7,2.9,324.8,0.00,2.6,6.7,"02:10:48",1
"23/12/27","02:30",0.0,4.5,88.0,1021.8,279.2,1.6,1.8,270.4,0.00,2.7,6.6,"02:25:28",1
"23/12/27","02:40",0.0,4.5,88.0,1021.5,277.6,1.5,2.2,319.3,0.00,2.7,6.7,"02:39:54",1
"23/12/27","02:50",0.0,4.6,88.0,1021.5,329.9,1.7,2.8,340.6,0.00,2.8,6.5,"02:45:44",1
"23/12/27","03:00",0.0,4.5,88.1,1022.0,280.0,1.5,2.4,316.2,0.00,2.7,6.7,"02:53:36",1
"23/12/27","03:10",0.0,4.4,88.4,1021.5,317.3,1.1,1.9,319.9,0.00,2.7,6.5,"03:03:52",1
"23/12/27","03:20",0.0,4.4,88.5,1021.5,322.5,1.7,2.5,348.6,0.00,2.7,6.5,"03:11:20",1
"23/12/27","03:30",0.0,4.0,88.8,1021.5,282.1,1.5,2.2,328.5,0.00,2.4,6.7,"03:20:08",1
"23/12/27","03:40",0.0,4.1,89.2,1021.8,264.1,1.3,2.5,245.1,0.00,2.5,6.6,"03:31:00",1
"23/12/27","03:50",0.0,4.2,89.4,1022.0,265.6,0.7,1.6,263.7,0.00,2.7,6.6,"03:40:10",1
"23/12/27","04:00",0.0,4.3,89.5,1021.8,268.8,1.1,2.0,267.8,0.00,2.8,6.7,"03:54:08",1
"23/12/27","04:10",0.0,4.4,89.6,1022.0,290.9,1.5,2.4,311.7,0.00,2.9,6.6,"04:03:32",1
"23/12/27","04:20",0.0,4.4,89.6,1021.5,316.6,1.6,2.5,319.2,0.00,2.9,6.5,"04:16:26",1
"23/12/27","04:30",0.0,4.3,89.7,1021.3,300.3,1.1,2.5,312.6,0.00,2.8,6.7,"04:20:48",1
"23/12/27","04:40",0.0,4.1,89.8,1021.5,306.7,1.3,2.4,312.0,0.00,2.6,6.6,"04:39:40",1
"23/12/27","04:50",0.0,4.0,90.0,1021.3,306.1,1.8,2.2,310.8,0.00,2.6,6.7,"04:46:46",1
"23/12/27","05:00",0.0,4.0,90.2,1021.5,322.9,1.7,2.2,327.6,0.00,2.6,6.5,"04:53:08",1
"23/12/27","05:10",0.0,4.1,90.4,1021.5,304.2,1.5,2.0,324.3,0.00,2.7,6.7,"05:00:32",1
"23/12/27","05:20",0.0,4.2,90.4,1022.0,290.5,1.2,1.7,275.2,0.00,2.8,6.7,"05:14:04",1
"23/12/27","05:30",0.0,4.2,90.6,1021.5,287.9,1.3,1.8,314.0,0.00,2.8,6.4,"05:20:48",1
"23/12/27","05:40",0.0,4.2,90.7,1021.5,298.3,1.6,2.0,309.8,0.00,2.9,6.6,"05:35:06",1
"23/12/27","05:50",0.0,4.3,90.7,1021.5,288.6,1.1,1.6,267.1,0.00,3.0,6.5,"05:49:50",1
"23/12/27","06:00",0.0,4.1,90.9,1021.8,310.1,1.1,2.0,332.2,0.00,2.8,6.6,"05:58:16",1
"23/12/27","06:10",0.0,3.7,91.1,1021.5,305.7,1.5,2.4,325.3,0.00,2.4,6.3,"06:08:16",1
"23/12/27","06:20",0.0,3.4,91.4,1022.0,288.5,0.8,2.0,313.5,0.00,2.2,6.6,"06:10:40",1
"23/12/27","06:30",0.0,3.2,91.8,1021.8,324.8,1.5,2.2,333.6,0.00,2.0,6.7,"06:23:28",1
"23/12/27","06:40",0.2,3.1,92.1,1021.8,309.6,1.3,2.0,321.1,0.00,2.0,6.7,"06:35:36",1
"23/12/27","06:50",0.0,3.1,92.3,1022.3,313.2,1.3,2.0,310.7,0.00,2.0,6.6,"06:48:40",1
"23/12/27","07:00",0.0,2.9,92.7,1022.0,319.0,1.5,2.0,325.3,0.00,1.9,6.5,"06:50:48",1
"23/12/27","07:10",0.0,3.0,92.9,1022.3,305.8,1.2,1.9,322.6,0.00,2.0,6.5,"07:03:04",1
"23/12/27","07:20",0.0,2.8,93.1,1022.5,285.1,1.0,1.1,270.7,0.00,1.8,6.4,"07:12:00",1
"23/12/27","07:30",0.0,3.1,93.4,1022.0,295.5,1.0,1.7,260.1,0.00,2.2,6.5,"07:29:44",1
"23/12/27","07:40",0.0,3.3,93.6,1021.8,283.8,1.3,1.7,307.7,0.01,2.4,6.4,"07:38:40",1
"23/12/27","07:50",0.0,3.7,93.8,1021.8,298.8,1.3,1.9,313.8,0.03,2.8,6.4,"07:43:34",1
"23/12/27","08:00",0.0,4.2,93.8,1022.0,273.3,0.7,1.0,270.8,0.05,3.3,6.4,"07:56:08",1
"23/12/27","08:10",0.0,4.6,93.9,1022.5,277.3,1.6,2.2,269.2,0.06,3.7,6.7,"08:06:00",1
"23/12/27","08:20",0.0,5.1,93.9,1022.7,292.4,1.6,2.1,295.0,0.08,4.2,6.4,"08:14:24",1
"23/12/27","08:30",0.0,5.4,93.7,1022.7,294.3,1.3,2.1,323.1,0.07,4.5,6.4,"08:25:44",1
"23/12/27","08:40",0.0,6.0,93.6,1022.7,318.3,1.2,2.0,319.2,0.12,5.1,6.7,"08:36:00",1
"23/12/27","08:50",0.0,6.3,93.1,1023.2,275.3,0.8,1.7,311.0,0.12,5.3,6.7,"08:40:40",1
"23/12/27","09:00",0.0,6.7,92.6,1023.4,293.4,1.1,2.0,320.5,0.12,5.6,6.5,"08:50:32",1
"23/12/27","09:10",0.0,6.8,91.7,1023.9,295.3,1.6,2.2,328.2,0.16,5.6,6.6,"09:00:40",1
"23/12/27","09:20",0.0,7.0,90.2,1023.9,275.3,1.5,2.4,323.9,0.16,5.5,6.7,"09:15:20",1
"23/12/27","09:30",0.0,7.1,87.9,1024.1,310.3,1.7,2.9,336.8,0.09,5.3,6.7,"09:26:00",1
"23/12/27","09:40",0.0,7.2,85.2,1024.4,319.7,1.7,2.6,314.4,0.03,4.9,6.7,"09:35:44",1
"23/12/27","09:50",0.0,7.4,83.0,1023.9,297.8,1.1,1.7,328.9,0.05,4.7,6.7,"09:40:08",1
"23/12/27","10:00",0.0,7.7,81.0,1023.7,297.9,0.8,1.4,343.2,0.08,4.7,6.8,"09:55:12",1
"23/12/27","10:10",0.0,7.7,79.4,1023.9,251.4,1.0,1.6,242.7,0.06,4.4,6.7,"10:06:32",1
"23/12/27","10:20",0.0,8.7,79.0,1024.4,238.9,0.8,1.8,233.8,0.31,5.3,6.7,"10:19:46",1
"23/12/27","10:30",0.0,9.4,76.1,1024.4,215.3,1.0,1.6,116.2,0.37,5.4,6.8,"10:28:08",1
"23/12/27","10:40",0.0,9.7,73.4,1024.1,206.9,0.6,1.0,230.0,0.29,5.2,6.8,"10:31:34",1
"23/12/27","10:50",0.0,9.5,72.4,1024.1,160.7,0.8,1.8,114.3,0.26,4.8,7.0,"10:49:44",1
"23/12/27","11:00",0.0,9.7,71.5,1023.7,135.6,0.7,1.7,241.6,0.28,4.8,7.0,"10:56:40",1
"23/12/27","11:10",0.0,10.0,71.5,1023.7,231.4,0.6,1.3,273.6,0.25,5.1,7.1,"11:00:02",1
"23/12/27","11:20",0.0,10.5,70.7,1023.4,264.3,1.0,1.9,247.7,0.29,5.4,7.2,"11:13:42",1
"23/12/27","11:30",0.0,11.0,70.0,1023.4,286.2,0.3,1.0,230.2,0.31,5.8,7.2,"11:20:30",1
"23/12/27","11:40",0.0,11.4,68.6,1023.4,255.0,0.6,1.3,123.8,0.33,5.9,7.3,"11:34:10",1
"23/12/27","11:50",0.0,11.9,67.4,1023.4,126.3,0.7,2.1,323.2,0.34,6.1,7.4,"11:47:12",1
"23/12/27","12:00",0.0,12.1,67.3,1023.2,288.2,1.6,4.1,291.0,0.35,6.3,7.4,"11:58:42",1
"23/12/27","12:10",0.0,12.4,66.4,1023.2,236.4,1.7,3.4,347.6,0.36,6.4,7.4,"12:07:04",1
"23/12/27","12:20",0.0,11.6,66.2,1023.0,80.5,1.3,2.0,119.9,0.15,5.6,7.6,"12:17:20",1
"23/12/27","12:30",0.0,11.2,67.0,1022.7,121.5,1.6,3.1,112.0,0.14,5.3,7.6,"12:21:44",1
"23/12/27","12:40",0.0,11.5,67.7,1022.7,130.3,1.3,2.1,110.4,0.22,5.8,7.7,"12:31:52",1
"23/12/27","12:50",0.0,11.8,66.4,1022.5,122.3,1.2,1.4,141.2,0.26,5.8,7.8,"12:45:14",1
"23/12/27","13:00",0.0,11.6,66.3,1022.5,76.2,1.2,2.0,105.6,0.19,5.6,7.9,"12:56:04",1
"23/12/27","13:10",0.0,12.4,65.6,1022.3,86.9,1.2,2.8,120.8,0.42,6.2,7.9,"13:01:58",1
"23/12/27","13:20",0.0,11.9,64.8,1022.3,97.6,1.2,2.4,114.3,0.20,5.5,8.1,"13:15:52",1
"23/12/27","13:30",0.0,11.6,65.8,1022.0,105.5,1.6,2.0,100.9,0.18,5.5,8.2,"13:22:26",1
"23/12/27","13:40",0.0,11.9,66.1,1022.0,98.2,1.0,1.3,126.9,0.14,5.8,8.1,"13:38:20",1
"23/12/27","13:50",0.0,11.6,66.3,1022.3,96.4,1.0,2.4,112.9,0.06,5.6,8.2,"13:48:44",1
"23/12/27","14:00",0.0,11.3,67.7,1022.3,105.8,1.3,2.7,110.7,0.05,5.6,8.3,"13:53:42",1
"23/12/27","14:10",0.0,11.1,68.8,1022.0,108.9,1.2,2.6,106.8,0.07,5.6,8.5,"14:09:06",1
"23/12/27","14:20",0.0,11.7,68.3,1022.3,105.5,1.1,3.2,111.0,0.16,6.1,8.3,"14:10:30",1
"23/12/27","14:30",0.0,11.7,68.0,1022.0,102.7,1.0,2.1,113.3,0.08,6.0,8.4,"14:24:56",1
"23/12/27","14:40",0.0,11.5,67.8,1022.3,127.4,0.7,1.3,21.6,0.04,5.8,8.5,"14:32:40",1
"23/12/27","14:50",0.0,11.4,68.4,1022.0,154.3,0.5,1.3,151.3,0.02,5.8,8.5,"14:44:56",1
"23/12/27","15:00",0.0,11.4,68.7,1022.7,340.9,1.5,4.0,334.1,0.03,5.9,8.5,"14:59:50",1
"23/12/27","15:10",0.0,11.0,69.2,1022.5,335.0,2.5,5.7,343.4,0.04,5.6,8.6,"15:09:28",1
"23/12/27","15:20",0.0,10.5,71.2,1022.7,342.4,3.1,5.5,339.4,0.04,5.6,8.5,"15:12:16",1
"23/12/27","15:30",0.0,10.0,73.6,1023.0,346.8,3.7,5.9,343.8,0.02,5.5,8.5,"15:24:26",1
"23/12/27","15:40",0.0,9.7,75.2,1023.2,340.5,3.2,6.5,336.6,0.01,5.6,8.6,"15:30:16",1
"23/12/27","15:50",0.0,9.6,76.4,1023.0,333.5,3.1,5.0,337.6,0.02,5.7,8.5,"15:48:00",1
"23/12/27","16:00",0.0,9.6,76.8,1023.2,326.8,2.2,4.3,2.9,0.04,5.8,8.5,"15:54:08",1
"23/12/27","16:10",0.0,9.6,76.6,1023.2,317.6,1.8,3.2,350.0,0.03,5.7,8.6,"16:06:00",1
"23/12/27","16:20",0.0,9.5,76.2,1023.2,337.3,1.6,3.4,352.2,0.01,5.6,8.4,"16:12:00",1
"23/12/27","16:30",0.0,9.3,76.0,1023.0,347.2,1.2,2.2,347.0,0.00,5.3,8.4,"16:20:02",1
"23/12/27","16:40",0.0,9.2,76.1,1023.2,348.2,1.3,2.2,340.9,0.00,5.3,8.6,"16:37:36",1
"23/12/27","16:50",0.0,8.9,76.6,1023.2,357.4,1.2,2.7,24.0,0.00,5.1,8.5,"16:47:28",1
"23/12/27","17:00",0.0,8.3,77.2,1023.0,298.3,1.7,3.1,320.3,0.00,4.6,8.4,"16:51:44",1
"23/12/27","17:10",0.0,8.1,77.9,1023.0,335.9,1.7,3.7,329.9,0.00,4.5,8.3,"17:01:52",1
"23/12/27","17:20",0.0,7.5,78.7,1023.2,318.1,2.0,2.8,320.3,0.00,4.1,8.5,"17:12:48",1
"23/12/27","17:30",0.0,7.2,79.6,1023.2,320.1,1.8,2.5,320.3,0.00,4.0,8.4,"17:20:48",1
"23/12/27","17:40",0.0,6.6,80.4,1023.0,297.4,1.2,2.1,315.0,0.00,3.5,8.4,"17:32:08",1
"23/12/27","17:50",0.0,6.4,81.1,1023.0,298.5,1.0,1.6,298.7,0.00,3.4,8.4,"17:42:00",1
"23/12/27","18:00",0.0,6.4,82.3,1023.4,327.9,0.2,0.9,297.8,0.00,3.6,8.5,"17:50:40",1
"23/12/27","18:10",0.0,6.2,83.4,1023.4,305.8,1.1,2.1,320.5,0.00,3.6,8.3,"18:07:58",1
"23/12/27","18:20",0.0,6.2,84.8,1023.0,308.5,2.1,3.1,334.2,0.00,3.9,8.2,"18:18:52",1
"23/12/27","18:30",0.0,6.4,85.9,1023.0,317.3,2.7,4.0,317.0,0.00,4.3,8.5,"18:25:46",1
"23/12/27","18:40",0.0,6.8,86.5,1023.0,305.9,3.6,4.9,322.6,0.00,4.7,8.3,"18:35:30",1
"23/12/27","18:50",0.0,6.5,86.7,1023.0,294.0,2.1,2.7,321.9,0.00,4.5,8.2,"18:48:34",1
"23/12/27","19:00",0.0,6.4,87.2,1023.4,321.0,2.5,4.1,328.6,0.00,4.5,8.2,"18:55:00",1
"23/12/27","19:10",0.0,6.2,87.5,1023.2,321.2,2.8,4.3,295.1,0.00,4.3,8.3,"19:01:04",1
"23/12/27","19:20",0.0,6.1,87.8,1023.4,322.2,2.3,3.4,324.9,0.00,4.3,8.0,"19:19:06",1
"23/12/27","19:30",0.0,6.1,88.1,1023.4,319.7,2.2,3.9,318.0,0.00,4.3,8.1,"19:20:32",1
"23/12/27","19:40",0.0,5.8,88.3,1023.2,293.5,1.6,2.6,316.1,0.00,4.1,8.0,"19:31:28",1
"23/12/27","19:50",0.0,5.6,88.7,1023.4,315.0,2.1,3.5,301.7,0.00,3.9,8.0,"19:40:24",1
"23/12/27","20:00",0.0,5.6,89.1,1023.4,319.9,2.6,3.9,316.9,0.00,4.0,7.9,"19:57:26",1
"23/12/27","20:10",0.0,5.6,89.4,1023.2,319.0,2.6,3.6,335.3,0.00,4.0,7.8,"20:00:24",1
"23/12/27","20:20",0.0,5.6,89.7,1023.2,328.4,2.6,3.5,343.1,0.00,4.1,7.8,"20:13:44",1
"23/12/27","20:30",0.0,5.6,89.9,1023.4,320.3,2.8,4.0,319.9,0.00,4.1,7.6,"20:26:10",1
"23/12/27","20:40",0.0,5.7,90.0,1023.4,307.8,2.3,3.4,321.4,0.00,4.2,7.8,"20:31:04",1
"23/12/27","20:50",0.0,5.6,89.9,1023.2,286.8,2.1,2.8,317.4,0.00,4.1,7.9,"20:47:24",1
"23/12/27","21:00",0.0,5.5,89.9,1023.2,272.5,1.8,2.0,271.5,0.00,4.0,7.7,"20:51:00",1
"23/12/27","21:10",0.0,5.6,89.9,1023.4,265.4,2.2,2.6,265.2,0.00,4.1,7.7,"21:03:06",1
"23/12/27","21:20",0.0,5.5,89.7,1023.2,268.8,2.0,2.8,257.8,0.00,4.0,7.7,"21:19:12",1
"23/12/27","21:30",0.0,5.6,89.4,1023.7,266.3,2.7,3.7,253.1,0.00,4.0,7.4,"21:22:24",1
"23/12/27","21:40",0.0,5.7,88.8,1023.4,262.8,2.5,3.4,249.3,0.00,4.0,7.8,"21:36:14",1
"23/12/27","21:50",0.0,5.7,88.3,1023.2,252.0,2.8,3.7,256.4,0.00,4.0,7.9,"21:42:10",1
"23/12/27","22:00",0.0,5.8,87.6,1023.0,259.9,3.1,4.1,260.2,0.00,3.9,7.5,"21:59:58",1
"23/12/27","22:10",0.0,5.7,87.2,1023.2,259.8,2.8,3.6,256.3,0.00,3.8,7.6,"22:07:40",1
"23/12/27","22:20",0.0,5.6,86.6,1023.0,289.9,2.2,3.1,322.5,0.00,3.6,7.5,"22:18:14",1
"23/12/27","22:30",0.0,5.2,86.3,1023.2,328.6,1.8,2.7,329.1,0.00,3.1,7.4,"22:20:02",1
"23/12/27","22:40",0.0,4.5,86.4,1022.7,319.5,1.3,2.9,323.2,0.00,2.5,7.4,"22:31:44",1
"23/12/27","22:50",0.0,4.3,87.0,1022.7,294.4,1.5,2.7,317.2,0.00,2.4,7.4,"22:49:46",1
"23/12/27","23:00",0.0,4.8,87.5,1022.7,330.3,2.8,4.4,339.0,0.00,2.9,7.4,"22:58:30",1
"23/12/27","23:10",0.0,4.8,88.0,1022.7,325.3,2.8,4.7,327.3,0.00,3.0,7.5,"23:04:08",1
"23/12/27","23:20",0.0,4.8,88.4,1022.3,303.9,2.7,3.7,323.9,0.00,3.1,7.4,"23:11:16",1
"23/12/27","23:30",0.0,5.2,88.7,1022.5,315.4,4.0,5.7,317.0,0.00,3.5,7.4,"23:29:52",1
"23/12/27","23:40",0.0,5.3,88.5,1022.5,316.3,3.7,5.8,317.2,0.00,3.6,7.6,"23:31:52",1
"23/12/27","23:50",0.0,4.9,88.5,1022.5,329.7,2.7,5.6,315.7,0.00,3.2,7.4,"23:42:08",1
"23/12/27","24:00",0.0,4.9,88.8,1022.5,326.6,2.7,5.5,311.4,0.00,3.3,7.5,"23:58:16",1
